This is the latest recevied weather packets stored in our database for station/object KC5DAQ-22. If no packets are shown the sender has not sent any weather packets the latest 10 day(s).
| Time | Temp. | Humidity | Pressure | Rain* | Wind** | Luminosity | Snow |
|---|---|---|---|---|---|---|---|
| 1777662302 | 16.67° C | 96% | 1007.8 hPa | 9.91 mm | - | 42 W/m² | - |
| 1777662242 | 16.67° C | 96% | 1007.8 hPa | 9.91 mm | - | 46 W/m² | - |
| 1777662183 | 16.67° C | 96% | 1007.9 hPa | 10.16 mm | - | 51 W/m² | - |
| 1777662123 | 16.67° C | 96% | 1008 hPa | 10.16 mm | - | 55 W/m² | - |
| 1777662063 | 16.67° C | 96% | 1008 hPa | 10.16 mm | - | 56 W/m² | - |
| 1777662003 | 16.67° C | 96% | 1008 hPa | 10.41 mm | - | 60 W/m² | - |
| 1777661942 | 16.67° C | 96% | 1008.1 hPa | 10.92 mm | - | 55 W/m² | - |
| 1777661882 | 16.67° C | 96% | 1008.1 hPa | 11.68 mm | - | 55 W/m² | - |
| 1777661823 | 16.67° C | 96% | 1008.1 hPa | 12.19 mm | - | 44 W/m² | - |
| 1777661762 | 16.67° C | 96% | 1007.9 hPa | 12.19 mm | - | 42 W/m² | - |
| 1777661702 | 16.67° C | 96% | 1007.7 hPa | 12.7 mm | - | 37 W/m² | - |
| 1777661642 | 16.67° C | 96% | 1007.5 hPa | 2.79 mm | - | 35 W/m² | - |
| 1777661582 | 16.67° C | 96% | 1007.5 hPa | 2.79 mm | - | 33 W/m² | - |
| 1777661522 | 16.67° C | 96% | 1007.7 hPa | 2.79 mm | - | 25 W/m² | - |
| 1777661462 | 16.67° C | 96% | 1007.9 hPa | 2.79 mm | - | 16 W/m² | - |
| 1777661404 | 16.67° C | 96% | 1008.1 hPa | 2.79 mm | - | 14 W/m² | - |
| 1777661342 | 16.67° C | 96% | 1008.2 hPa | 2.79 mm | - | 14 W/m² | - |
| 1777661283 | 16.67° C | 96% | 1008.3 hPa | 2.79 mm | - | 12 W/m² | - |
| 1777661222 | 16.67° C | 96% | 1008.3 hPa | 2.79 mm | - | 11 W/m² | - |
| 1777661162 | 16.67° C | 96% | 1008.4 hPa | 2.79 mm | - | 11 W/m² | - |
| 1777661103 | 16.67° C | 96% | 1008.4 hPa | 2.79 mm | - | 11 W/m² | - |
| 1777661042 | 16.67° C | 96% | 1008.3 hPa | 2.79 mm | - | 11 W/m² | - |
| 1777660983 | 16.67° C | 96% | 1008.2 hPa | 2.79 mm | - | 11 W/m² | - |
| 1777660922 | 16.67° C | 96% | 1007.9 hPa | 2.79 mm | - | 12 W/m² | - |
| 1777660861 | 16.67° C | 96% | 1007.8 hPa | 2.79 mm | - | 12 W/m² | - |
* Rain latest hour (hover to see other rain measurements)
** Current wind speed in m/s (hover to see current wind gust speed)